Location: Poughquag
(41.6090°N, 73.6820°W)
Time: 08:47:34
(UTC-04:00)

Altair - All Passes

Search period start: 14 October 2019 00:00
Search period end: 24 October 2019 00:00
Orbit: 1501 x 1683 km, 47.2° (Epoch: 14 October)

Date Brightness Start Highest point End Pass type
(mag) Time Alt. Az. Time Alt. Az. Time Alt. Az.
14 Oct - 10:46:50 10° SSE 10:51:54 16° ESE 10:57:03 10° E daylight
14 Oct - 12:45:43 10° SW 12:54:58 57° SE 13:04:35 10° ENE daylight
14 Oct - 14:49:56 10° WSW 14:59:42 74° NNW 15:09:50 10° ENE daylight
14 Oct - 16:55:39 10° WNW 17:05:33 65° N 17:15:41 10° E daylight
14 Oct - 19:00:52 10° WNW 19:10:58 81° SSW 19:21:09 10° SE visible
14 Oct - 21:06:30 10° WNW 21:14:53 31° SW 21:23:15 10° S visible
15 Oct - 10:22:44 10° SSE 10:26:54 14° ESE 10:31:07 10° E daylight
15 Oct - 12:20:43 10° SSW 12:29:50 53° SE 12:39:19 10° ENE daylight
15 Oct - 14:24:43 10° WSW 14:34:27 76° NNW 14:44:35 10° ENE daylight
15 Oct - 16:30:24 10° WNW 16:40:16 65° N 16:50:23 10° E daylight
15 Oct - 18:35:39 10° WNW 18:45:46 84° SSW 18:55:58 10° ESE visible
15 Oct - 20:41:08 10° WNW 20:49:48 34° SW 20:58:27 10° S visible
16 Oct - 09:59:00 10° SE 10:01:54 12° ESE 10:04:50 10° ESE daylight
16 Oct - 11:55:46 10° SSW 12:04:44 49° SE 12:14:03 10° ENE daylight
16 Oct - 13:59:31 10° WSW 14:09:13 79° NNW 14:19:19 10° ENE daylight
16 Oct - 16:05:09 10° WNW 16:14:59 64° N 16:25:04 10° E daylight
16 Oct - 18:10:26 10° WNW 18:20:33 88° SSW 18:30:46 10° ESE daylight
16 Oct - 20:15:49 10° WNW 20:24:42 37° SW 20:33:36 10° SSE visible
17 Oct - 11:30:50 10° SSW 11:39:38 45° SE 11:48:46 10° ENE daylight
17 Oct - 13:34:19 10° WSW 13:43:59 82° NNW 13:54:04 10° ENE daylight
17 Oct - 15:39:55 10° W 15:49:41 64° N 15:59:46 10° E daylight
17 Oct - 17:45:14 10° WNW 17:55:19 88° NNE 18:05:33 10° ESE daylight
17 Oct - 19:50:30 10° WNW 19:59:35 40° SW 20:08:42 10° SSE visible
18 Oct - 11:05:55 10° SSW 11:14:32 42° SE 11:23:28 10° ENE daylight
18 Oct - 13:09:08 10° WSW 13:18:46 85° NNW 13:28:49 10° ENE daylight
18 Oct - 15:14:40 10° W 15:24:24 63° N 15:34:27 10° E daylight
18 Oct - 17:20:02 10° WNW 17:30:05 85° NNE 17:40:19 10° ESE daylight
18 Oct - 19:25:13 10° WNW 19:34:28 43° SW 19:43:46 10° SSE visible
19 Oct - 10:41:03 10° SSW 10:49:27 38° SE 10:58:09 10° ENE daylight
19 Oct - 12:43:58 10° WSW 12:53:33 88° NNW 13:03:34 10° ENE daylight
19 Oct - 14:49:25 10° W 14:59:07 63° N 15:09:09 10° E daylight
19 Oct - 16:54:50 10° WNW 17:04:51 82° NNE 17:15:03 10° ESE daylight
19 Oct - 18:59:57 10° WNW 19:09:20 46° SW 19:18:49 10° SSE visible
19 Oct - 21:09:55 10° WSW 21:12:17 11° WSW 21:14:39 10° SW visible
20 Oct - 10:16:13 10° SSW 10:24:23 35° SE 10:32:50 10° ENE daylight
20 Oct - 12:18:49 10° WSW 12:28:22 88° SSE 12:38:21 10° ENE daylight
20 Oct - 14:24:11 10° W 14:33:50 64° N 14:43:51 10° ENE daylight
20 Oct - 16:29:37 10° WNW 16:39:36 79° NNE 16:49:48 10° ESE daylight
20 Oct - 18:34:42 10° WNW 18:44:13 50° SW 18:53:49 10° SSE visible
20 Oct - 20:43:20 10° W 20:47:15 13° WSW 20:51:11 10° SW visible
21 Oct - 09:51:26 10° S 09:59:20 32° SE 10:07:29 10° ENE daylight
21 Oct - 11:53:41 10° WSW 12:03:10 84° SSE 12:13:06 10° ENE daylight
21 Oct - 13:58:56 10° W 14:08:34 64° N 14:18:33 10° ENE daylight
21 Oct - 16:04:25 10° WNW 16:14:21 77° NNE 16:24:32 10° ESE daylight
21 Oct - 18:09:28 10° WNW 18:19:04 54° SW 18:28:48 10° SSE daylight
21 Oct - 20:17:18 10° W 20:22:13 15° WSW 20:27:11 10° SSW visible
22 Oct - 09:26:41 10° S 09:34:17 29° SE 09:42:07 10° ENE daylight
22 Oct - 11:28:34 10° SW 11:38:00 80° SSE 11:47:52 10° ENE daylight
22 Oct - 13:33:43 10° W 13:43:17 65° N 13:53:15 10° ENE daylight
22 Oct - 15:39:13 10° WNW 15:49:06 74° NNE 15:59:15 10° ESE daylight
22 Oct - 17:44:14 10° WNW 17:53:55 57° SW 18:03:45 10° SE daylight
22 Oct - 19:51:29 10° W 19:57:11 17° WSW 20:02:56 10° SSW visible
23 Oct - 09:01:58 10° S 09:09:15 26° SE 09:16:42 10° ENE daylight
23 Oct - 11:03:27 10° SW 11:12:50 76° SSE 11:22:38 10° ENE daylight
23 Oct - 13:08:28 10° W 13:18:01 66° N 13:27:59 10° ENE daylight
23 Oct - 15:14:00 10° WNW 15:23:50 72° NNE 15:33:58 10° E daylight
23 Oct - 17:19:01 10° WNW 17:28:45 61° SW 17:38:40 10° SE daylight
23 Oct - 19:25:49 10° W 19:32:08 19° SW 19:38:32 10° SSW visible
